sat.trackr.live / text

‹ back to catalog

COSMOS 2401

NORAD 27869 · 2003-037B

PAYLOAD ACTIVE UNKNOWN

§ Identity

Operator
Country
CIS
Launch date
2003-08-19
Launch site
PLMSC
Launch vehicle
Mass (kg)
RCS (m²)
0.96

External: N2YO · Heavens-Above · Gunter

§ Orbital elements

Epoch: 2026-09-12T04:22:34.004928Z

Period
115.62 min
Inclination
82.4647°
Eccentricity
0.0021422
Mean motion
12.45504655 rev/d
Perigee alt
1,466.5 km
Apogee alt
1,500.2 km
Semi-major
7,861.5 km
B*
3.7241e-5
RAAN
271.6399°
Arg perigee
217.7618°
Mean anomaly
142.1961°
Rev number
4,860

§ Raw data

COSMOS 24011 27869U 03037B   26255.18233802  .00000015  00000+0  37241-4 0  99982 27869  82.4647 271.6399 0021422 217.7618 142.1961 12.45504655 48604

JSON: /api/v1/satellites/27869 · /tle

For live sub-satellite position, see the globe view (requires WebGL).

§ Visibility from observer

Set your observer location to see the next 7 days of passes ≥ 10°. The values pass through the URL so the page stays shareable.

No JS? Fill the form by hand. The geolocation button needs JavaScript.